Regional Weather Roundup
Issued by NWS

Home | Current Version | Previous Version | Text Only | Print | Product List | Glossary On
Versions: 1 2 3 4 5 6 7 8 9 10 11 12 13 14 15 16 17 18 19 20 21 22 23 24 25 26 27 28 29 30 31 32 33 34 35 36 37 38 39 40 41 42 43 44 45 46 47 48 49 50
000
ASUS43 KDTX 220601
RWRMI
MICHIGAN HOURLY REGIONAL WEATHER ROUNDUP
NATIONAL WEATHER SERVICE DETROIT/PONTIAC MI
100 AM EST MON JAN 22 2018

NOTE: "FAIR" INDICATES FEW OR NO CLOUDS BELOW 12,000 FEET WITH NO
SIGNIFICANT WEATHER AND/OR OBSTRUCTION TO VISIBILITY.

MIZ047>049-052>055-059>063-066>070-074>076-081>083-220700-
SOUTHEAST LOWER MICHIGAN

CITY           SKY/WX    TMP DP  RH WIND       PRES   REMARKS
ADRIAN         FOG       36  36 100 SE5       29.96F VSB 1/4 WCI  32
6HR MIN TEMP:  36; 6HR MAX TEMP:  37;

ALMA           LGT RAIN  36  36 100 NE5       29.96F VSB 3/4 WCI  32
6HR MIN TEMP:  35; 6HR MAX TEMP:  36;

ANN ARBOR      FOG       38  38 100 CALM      29.96F VSB 1/2
BAD AXE        CLOUDY    35  35  99 CALM      30.02F FOG
6HR MIN TEMP:  30; 6HR MAX TEMP:  35;

CARO           LGT RAIN  36  36  99 NE3       29.99F
DETROIT CITY   FOG       37  36  96 E3        29.98F VSB 3/4
6HR MIN TEMP:  36; 6HR MAX TEMP:  37; 6HR PCP: TRACE;

DETROIT        DRZL/FOG  38  38 100 CALM      29.98F VSB 1/4
6HR MIN TEMP:  38; 6HR MAX TEMP:  39; 6HR PCP: TRACE;

FLINT          CLOUDY    37  37 100 NE5       29.98S FOG     WCI  33
6HR MIN TEMP:  37; 6HR MAX TEMP:  38; 6HR PCP:  0.02;

GROSSE ILE     FOG       37  37  99 CALM      29.97F VSB 1/2
6HR MIN TEMP:  36; 6HR MAX TEMP:  38;

HILLSDALE      SNOW      41  39  93 SE7       29.92F VSB 1/4
HOWELL         FOG       38  38 100 SE5       29.95F VSB 3/4 WCI  34
6HR MIN TEMP:  37; 6HR MAX TEMP:  38;


CITY           SKY/WX    TMP DP  RH WIND       PRES   REMARKS
JACKSON        FOG       38  38 100 VRB3      29.94F VSB 1/2
6HR MIN TEMP:  37; 6HR MAX TEMP:  39;

LAMBERTVILLE   CLOUDY    40  40  97 SE3       29.97F FOG
6HR MIN TEMP:  38; 6HR MAX TEMP:  42;

LANSING        FOG       37  37 100 E3        29.95F VSB 1/2
6HR MIN TEMP:  36; 6HR MAX TEMP:  38; 6HR PCP:  0.02;

LAPEER         DRIZZLE   37  37  99 CALM      29.98F
6HR MIN TEMP:  36; 6HR MAX TEMP:  37;

MT. CLEMENS      N/A    N/A N/A N/A E3          N/A  VSB 1/8
PONTIAC        FOG       36  36 100 E5        29.96F VSB 3/4 WCI  32
6HR MIN TEMP:  36; 6HR MAX TEMP:  37; 6HR PCP:  0.01;

PORT HOPE        N/A     32  32 100 CALM      30.01F
6HR MIN TEMP:  30; 6HR MAX TEMP:  32;

PORT HURON     FOG       36  34  93 CALM      30.01S VSB 3/4
TRI CITIES     CLOUDY    36  36 100 NE6       29.98F FOG     WCI  31
6HR MIN TEMP:  34; 6HR MAX TEMP:  36; 6HR PCP: TRACE;

MIDLAND        CLOUDY    35  35  99 NE7       29.97F FOG     WCI  30
6HR MIN TEMP:  35; 6HR MAX TEMP:  36;

TROY           FOG       37  37  99 NE6       29.99F VSB 3/4 WCI  32
SAGINAW HB     RAIN      34  34 100 E7        29.98F WCI  28
$$
MIZ043>046-050>051-056>058-064>065-071>073-077>080-220700-
SOUTHWEST LOWER MICHIGAN

CITY           SKY/WX    TMP DP  RH WIND       PRES   REMARKS
BATTLE CREEK   FOG       41  41 100 SE6       29.91F VSB 3/4
6HR MIN TEMP:  39; 6HR MAX TEMP:  41; 6HR PCP: TRACE;

BENTON HARBOR  FOG       45  44  97 SE7       29.87F VSB 1/2
6HR MIN TEMP:  41; 6HR MAX TEMP:  45;

BIG RAPIDS     CLOUDY    36  35  95 E3        29.94S FOG
6HR MIN TEMP:  35; 6HR MAX TEMP:  36;

COLDWATER      FOG       44  44 100 SE5       29.91F VSB 1/2
6HR MIN TEMP:  39; 6HR MAX TEMP:  44;

FREMONT        DRIZZLE   38  36  94 E7        29.92F WCI  32
6HR MIN TEMP:  37; 6HR MAX TEMP:  38;

HOLLAND        FOG       38  37  97 E7        29.90F VSB 1   WCI  33
6HR MIN TEMP:  38; 6HR MAX TEMP:  39;

GRAND RAPIDS   LGT RAIN  37  37 100 E8        29.92F VSB 1   WCI  31
6HR MIN TEMP:  37; 6HR MAX TEMP:  37; 6HR PCP:  0.02;

IONIA          RAIN      36  36 100 NE5       29.93F VSB 3/4 WCI  32
6HR MIN TEMP:  36; 6HR MAX TEMP:  37;

KALAMAZOO      FOG       43  42  97 E5        29.90F VSB 1/2
6HR MIN TEMP:  40; 6HR MAX TEMP:  44; 6HR PCP: TRACE;

LUDINGTON      CLOUDY    37  37 100 NE6       29.92F FOG     WCI  33
6HR MIN TEMP:  37; 6HR MAX TEMP:  38; 6HR PCP:  0.02;

MARSHALL       FOG       40  39  97 CALM      29.92F VSB 1/2
6HR MIN TEMP:  37; 6HR MAX TEMP:  40;

MOUNT PLEASANT FOG       37  36  96 E5        29.96F VSB 1   WCI  33
6HR MIN TEMP:  36; 6HR MAX TEMP:  37;

MUSKEGON       LGT RAIN  38  36  92 E8        29.91F VSB 1   WCI  32
6HR MIN TEMP:  38; 6HR MAX TEMP:  39; 6HR PCP:  0.02;

SOUTH HAVEN    FOG       43  42  95 CALM      29.88F VSB 1/2
$$
MIZ016>042-220700-
NORTHERN LOWER MICHIGAN

CITY           SKY/WX    TMP DP  RH WIND       PRES   REMARKS
ALPENA         FOG       32  32 100 E5        30.04F VSB 1/2 WCI  27
6HR MIN TEMP:  32; 6HR MAX TEMP:  32;

BEAVER ISLAND  FOG       33  33  99 E7        30.01F VSB 1/2 WCI  27
6HR MIN TEMP:  33; 6HR MAX TEMP:  37;

BELLAIRE       CLOUDY    32  32 100 CALM      30.00F
6HR MIN TEMP:  31; 6HR MAX TEMP:  37;

CADILLAC       LGT RAIN  34  34  99 E6        29.95F WCI  29
CHARLEVOIX     MOCLDY    35  33  94 NE5       30.02F WCI  30
6HR MIN TEMP:  33; 6HR MAX TEMP:  35;

FRANKFORT      CLOUDY    38  34  85 E6        29.97F WCI  34
GAYLORD        CLOUDY    35  31  85 E3        29.97F
6HR MIN TEMP:  32; 6HR MAX TEMP:  36;

GRAYLING       CLOUDY    32  30  93 CALM      29.99F
6HR MIN TEMP:  30; 6HR MAX TEMP:  33;

HARBOR SPRINGS CLOUDY    34  33  96 NE7       30.01S WCI  28
HOUGHTON LAKE  CLOUDY    33  32  96 E5        29.98F FOG     WCI  29
6HR MIN TEMP:  28; 6HR MAX TEMP:  33;

MANISTEE       LGT RAIN  35  34  96 E5        29.97S FOG     WCI  31
OSCODA         FOG       31  31  99 CALM      30.03S VSB 3/4
6HR MIN TEMP:  31; 6HR MAX TEMP:  32;

PELLSTON       CLOUDY    33  33 100 E6        30.03F FOG     WCI  28
6HR MIN TEMP:  33; 6HR MAX TEMP:  35;

ROGERS CITY    CLOUDY    32  32  99 E7        30.05F FOG     WCI  26
TRAVERSE CITY  CLOUDY    34  33  96 CALM      29.99S FOG
6HR MIN TEMP:  33; 6HR MAX TEMP:  37;

$$
MIZ007>008-015-220700-
EASTERN UPPER MICHIGAN

CITY           SKY/WX    TMP DP  RH WIND       PRES   REMARKS
KINROSS        CLOUDY    33  32  96 E13       30.04F FOG     WCI  24
6HR MIN TEMP:  32; 6HR MAX TEMP:  33;

MACKINAC ISLAN FOG       32  32 100 E9G16     30.02F VSB 1/4 WCI  25
6HR MIN TEMP:  32; 6HR MAX TEMP:  34;

NEWBERRY       CLOUDY    31  30  96 NE8       30.02F WCI  24
6HR MIN TEMP:  31; 6HR MAX TEMP:  35;

S. S. MARIE    CLOUDY    36  31  82 E3        30.05F
6HR MIN TEMP:  34; 6HR MAX TEMP:  36;

MUNISING         N/A     33  33 100 N10       30.04S WCI  25
6HR MIN TEMP:  33; 6HR MAX TEMP:  33;

$$
MIZ004>006-011>014-085-220700-
CENTRAL UPPER MICHIGAN

CITY           SKY/WX    TMP DP  RH WIND       PRES   REMARKS
ESCANABA       CLOUDY    34  31  88 NE7       30.02S WCI  28
6HR MIN TEMP:  34; 6HR MAX TEMP:  36;

MENOMINEE      CLOUDY    34  31  88 NE14      30.01S WCI  25
6HR MIN TEMP:  33; 6HR MAX TEMP:  36;

SAWYER-GWINN   FOG       29  28  96 NE10      30.03S VSB 1/2 WCI  20
6HR MIN TEMP:  29; 6HR MAX TEMP:  32;

$$
MIZ001>003-009>011-084-220700-
WESTERN UPPER MICHIGAN

CITY           SKY/WX    TMP DP  RH WIND       PRES   REMARKS
IRON MOUNTAIN  CLOUDY    33  30  88 NE6       29.99S WCI  28
6HR MIN TEMP:  33; 6HR MAX TEMP:  37;

HOUGHTON       CLOUDY    28  25  88 E10       30.06S FOG     WCI  19
6HR MIN TEMP:  28; 6HR MAX TEMP:  32; 6HR PCP: TRACE;

COPPER HARBOR    N/A     29  25  85 E9        30.11F WCI  20
6HR MIN TEMP:  29; 6HR MAX TEMP:  30;

IRONWOOD       CLOUDY    30  29  96 NE9       30.03S WCI  22
6HR MIN TEMP:  30; 6HR MAX TEMP:  30;

$$

ABBREVIATIONS USED IN REMARKS
   TC - TEMPERATURE IN CELSIUS
  WCI - WIND CHILL INDEX
   HX - HEAT INDEX
  VSB - VISIBILITY





USA.gov is the U.S. government's official web portal to all federal, state and local government web resources and services.